Terug naar catalogus

COSMOS 2251 DEB

ActiefLEO
NORAD 34913·DEBRIS·🇷🇺 Russia

Gelanceerd Jun 16, 1993 vanaf Plesetsk Cosmodrome

Loading…

Volgende Passages (komende 24 uur)

TLE

VersSource: Space-Track

Epoch: Sep 13, 2026, 10:49 UTC

1 34913U 93036ADJ 26256.45073002  .00000068  00000-0  33246-4 0  9999
2 34913  74.0280 139.0346 0021259 188.5598 346.1281 14.34702690691278

Volg COSMOS 2251 DEB in realtime met AllMySat

Download on the App Store